FW2511 Weather Reports


Display with metric or nautical units.
time (UTC)temp
F
wind
direction
speed
MPH
gust
MPH
rain 1hr
in
rain 24hr
in
rain mn
in
humidity
%
barometer
mb
20260506061554 63 164 3.0 14.0 0.00 0.00 0.00 55 1014.4
20260506044629 65 126 3.0 14.0 0.00 0.00 0.00 49 1015.1
20260506043036 66 134 4.0 13.0 0.00 0.00 0.00 48 1015.0
20260506041534 67 154 3.0 12.0 0.00 0.00 0.00 46 1015.0
20260506040032 67 109 3.0 13.0 0.00 0.00 0.00 43 1014.9
20260506034558 68 161 1.0 7.0 0.00 0.00 0.00 41 1014.7
20260506033032 68 155 2.0 8.0 0.00 0.00 0.00 40 1014.8
20260506031527 69 136 2.0 9.0 0.00 0.00 0.00 40 1014.6
20260506030024 69 216 2.0 9.0 0.00 0.00 0.00 39 1014.6
20260506024522 69 153 2.0 7.0 0.00 0.00 0.00 39 1014.6
20260506023021 69 124 1.0 5.0 0.00 0.00 0.00 39 1014.7
20260506021519 70 183 1.0 3.0 0.00 0.00 0.00 38 1014.6
20260506020018 70 142 1.0 5.0 0.00 0.00 0.00 38 1014.7
20260506014525 70 153 1.0 5.0 0.00 0.00 0.00 38 1014.8
20260506013017 70 244 1.0 5.0 0.00 0.00 0.00 38 1014.7
20260506011519 70 150 1.0 6.0 0.00 0.00 0.00 37 1014.5
20260506010019 71 169 0.0 3.0 0.00 0.00 0.00 35 1014.6
20260506004531 71 173 1.0 7.0 0.00 0.00 0.00 35 1014.4
20260506003033 72 175 1.0 3.0 0.00 0.00 0.00 33 1014.6
20260506001518 73 208 1.0 3.0 0.00 0.00 0.00 32 1014.4
20260506000016 74 210 1.0 2.0 0.00 0.00 0.00 30 1014.4
20260505234638 74 210 1.0 8.0 0.00 0.00 0.00 29 1014.3
20260505233018 75 185 2.0 10.0 0.00 0.00 0.00 28 1014.1
20260505231516 76 233 1.0 14.0 0.00 0.00 0.00 27 1014.0
20260505230013 76 246 4.0 17.0 0.00 0.00 0.00 26 1014.2
20260505224513 76 236 5.0 16.0 0.00 0.00 0.00 26 1014.3
20260505223013 76 235 7.0 16.0 0.00 0.00 0.00 27 1014.2
20260505221516 76 144 3.0 12.0 0.00 0.00 0.00 27 1014.1
20260505220022 76 207 8.0 16.0 0.00 0.00 0.00 26 1014.2
20260505214512 76 167 5.0 18.0 0.00 0.00 0.00 27 1014.4
20260505213008 76 251 9.0 20.0 0.00 0.00 0.00 27 1014.5
20260505211508 76 267 6.0 14.0 0.00 0.00 0.00 27 1014.7
20260505210009 76 175 7.0 12.0 0.00 0.00 0.00 26 1014.8
20260505204508 76 167 5.0 13.0 0.00 0.00 0.00 26 1014.7
20260505203008 76 223 1.0 14.0 0.00 0.00 0.00 28 1014.8
20260505201509 77 270 8.0 20.0 0.00 0.00 0.00 26 1015.1
20260505200004 77 134 5.0 15.0 0.00 0.00 0.00 27 1015.3
20260505194505 76 254 10.0 20.0 0.00 0.00 0.00 26 1015.4
20260505193002 76 134 6.0 20.0 0.00 0.00 0.00 25 1015.5
20260505191602 77 252 3.0 13.0 0.00 0.00 0.00 24 1015.8
20260505190004 77 124 5.0 19.0 0.00 0.00 0.00 25 1016.0
20260505184502 76 265 7.0 17.0 0.00 0.00 0.00 26 1016.3
20260505183059 75 180 6.0 20.0 0.00 0.00 0.00 27 1016.6
20260505181601 75 246 8.0 17.0 0.00 0.00 0.00 27 1016.7
20260505180058 75 193 4.0 17.0 0.00 0.00 0.00 28 1016.9
20260505174608 74 259 5.0 18.0 0.00 0.00 0.00 29 1017.1
20260505173050 75 254 8.0 16.0 0.00 0.00 0.00 28 1017.1
20260505171548 74 158 6.0 11.0 0.00 0.00 0.00 27 1017.2
20260505170115 73 155 5.0 11.0 0.00 0.00 0.00 29 1017.1
20260505164549 74 196 4.0 10.0 0.00 0.00 0.00 30 1017.1
20260505163044 72 155 1.0 18.0 0.00 0.00 0.00 38 1017.2
20260505161537 70 178 5.0 14.0 0.00 0.00 0.00 38 1017.6
20260505153046 70 207 5.0 12.0 0.00 0.00 0.00 43 1018.2
20260505151534 69 232 5.0 14.0 0.00 0.00 0.00 45 1018.1
20260505124522 59 251 5.0 14.0 0.00 0.00 0.00 58 1017.7
20260505123023 59 239 5.0 13.0 0.00 0.00 0.00 59 1017.6
20260505121520 58 207 4.0 9.0 0.00 0.00 0.00 60 1017.5
20260505120026 57 146 3.0 9.0 0.00 0.00 0.00 60 1017.4
20260505114516 55 254 1.0 7.0 0.00 0.00 0.00 61 1017.2
20260505113020 54 229 0.0 4.0 0.00 0.00 0.00 62 1017.1
20260505111518 53 217 0.0 2.0 0.00 0.00 0.00 63 1017.0
20260505101514 53 212 0.0 2.0 0.00 0.00 0.00 61 1016.8
20260505100010 54 212 0.0 2.0 0.00 0.00 0.00 61 1016.9
20260505094509 54 212 0.0 1.0 0.00 0.00 0.00 60 1016.9
20260505093010 54 212 0.0 2.0 0.00 0.00 0.00 60 1016.6
20260505091507 54 212 0.0 1.0 0.00 0.00 0.00 59 1016.6
20260505090006 54 211 0.0 2.0 0.00 0.00 0.00 59 1016.6
20260505084513 55 211 0.0 2.0 0.00 0.00 0.00 58 1016.6
20260505083008 55 212 0.0 2.0 0.00 0.00 0.00 57 1016.5
20260505081600 56 213 1.0 4.0 0.00 0.00 0.00 56 1016.2
20260505080058 57 240 0.0 3.0 0.00 0.00 0.00 54 1016.1
20260505074558 57 245 1.0 5.0 0.00 0.00 0.00 54 1016.2
20260505073100 58 200 3.0 8.0 0.00 0.00 0.00 53 1016.0
20260505071553 58 245 3.0 8.0 0.00 0.00 0.00 52 1016.0
20260505070053 59 160 3.0 9.0 0.00 0.00 0.00 51 1015.8